TimeCDT,TemperatureF,Dew PointF,Humidity,Sea Level PressureIn,VisibilityMPH,Wind Direction,Wind SpeedMPH,Gust SpeedMPH,PrecipitationIn,Events,Conditions,WindDirDegrees,DateUTC
12:52 AM,45.0,34.0,65,29.89,10.0,East,8.1,-,N/A,,Clear,100,2012-10-15 05:52:00
1:52 AM,39.9,34.0,79,29.89,10.0,ESE,3.5,-,N/A,,Clear,120,2012-10-15 06:52:00
2:52 AM,46.0,39.0,76,29.87,10.0,SE,5.8,-,N/A,,Clear,130,2012-10-15 07:52:00
3:52 AM,46.9,39.9,77,29.85,10.0,SSE,6.9,-,N/A,,Partly Cloudy,150,2012-10-15 08:52:00
4:52 AM,48.0,37.0,66,29.83,10.0,SSE,6.9,-,N/A,,Partly Cloudy,160,2012-10-15 09:52:00
5:52 AM,46.9,39.9,77,29.82,10.0,SE,6.9,-,N/A,,Clear,140,2012-10-15 10:52:00
6:52 AM,46.9,41.0,80,29.81,10.0,SSE,6.9,-,N/A,,Clear,150,2012-10-15 11:52:00
7:52 AM,46.9,39.9,77,29.80,10.0,SE,8.1,-,N/A,,Clear,130,2012-10-15 12:52:00
8:52 AM,50.0,39.9,68,29.77,10.0,SE,9.2,-,N/A,,Clear,140,2012-10-15 13:52:00
9:52 AM,54.0,39.9,59,29.75,10.0,SSE,12.7,-,N/A,,Clear,150,2012-10-15 14:52:00
10:52 AM,57.9,39.9,51,29.75,10.0,South,10.4,-,N/A,,Clear,170,2012-10-15 15:52:00
11:52 AM,64.0,35.1,34,29.72,10.0,South,11.5,-,N/A,,Clear,190,2012-10-15 16:52:00
12:52 PM,73.0,34.0,24,29.69,10.0,SSW,10.4,-,N/A,,Clear,200,2012-10-15 17:52:00
1:52 PM,80.1,32.0,17,29.65,10.0,West,13.8,-,N/A,,Clear,260,2012-10-15 18:52:00
2:52 PM,78.1,33.1,19,29.62,10.0,WSW,9.2,-,N/A,,Clear,250,2012-10-15 19:52:00
3:52 PM,80.1,33.1,18,29.60,10.0,West,10.4,-,N/A,,Clear,270,2012-10-15 20:52:00
4:52 PM,77.0,35.1,22,29.60,10.0,West,18.4,21.9,N/A,,Clear,280,2012-10-15 21:52:00
5:52 PM,73.9,36.0,25,29.60,10.0,NW,9.2,-,N/A,,Clear,310,2012-10-15 22:52:00
6:52 PM,69.1,36.0,30,29.61,10.0,West,3.5,-,N/A,,Scattered Clouds,280,2012-10-15 23:52:00
7:52 PM,71.1,37.0,29,29.62,10.0,NW,9.2,-,N/A,,Scattered Clouds,320,2012-10-16 00:52:00
8:52 PM,68.0,41.0,37,29.63,10.0,North,11.5,-,N/A,,Clear,350,2012-10-16 01:52:00
9:52 PM,64.0,44.1,48,29.63,10.0,North,8.1,-,N/A,,Clear,350,2012-10-16 02:52:00
10:52 PM,60.1,43.0,53,29.64,10.0,NW,5.8,-,N/A,,Clear,320,2012-10-16 03:52:00
11:52 PM,59.0,43.0,55,29.63,10.0,Calm,Calm,-,N/A,,Overcast,0,2012-10-16 04:52:00